This is the latest recevied weather packets stored in our database for station/object KC3DGM. If no packets are shown the sender has not sent any weather packets the latest 10 day(s).
| Time | Temp. | Humidity | Pressure | Rain* | Wind** | Luminosity | Snow |
|---|---|---|---|---|---|---|---|
| 1777554480 | 5° C | 95% | 982.6 hPa | 0 mm | - | 45 W/m² | - |
| 1777554176 | 5° C | 96% | 982.7 hPa | 1.78 mm | - | 40 W/m² | - |
| 1777553874 | 5.56° C | 97% | 982.4 hPa | 1.78 mm | - | 37 W/m² | - |
| 1777553570 | 5.56° C | 97% | 982.4 hPa | 0 mm | - | 38 W/m² | - |
| 1777553265 | 5.56° C | 97% | 982.4 hPa | 0 mm | - | 35 W/m² | - |
| 1777552962 | 5.56° C | 97% | 982.6 hPa | 0 mm | - | 39 W/m² | - |
| 1777552656 | 5.56° C | 97% | 982.7 hPa | 0 mm | - | 25 W/m² | - |
| 1777552354 | 5.56° C | 97% | 982.3 hPa | 0 mm | - | 35 W/m² | - |
| 1777552050 | 5.56° C | 97% | 982.4 hPa | 0 mm | - | 23 W/m² | - |
| 1777551747 | 5.56° C | 97% | 982.6 hPa | 0 mm | - | 25 W/m² | - |
| 1777551445 | 5.56° C | 97% | 982.4 hPa | 0 mm | - | 19 W/m² | - |
| 1777551141 | 5.56° C | 97% | 982.3 hPa | 0 mm | - | 22 W/m² | - |
| 1777550839 | 5.56° C | 97% | 982.7 hPa | 0 mm | - | 17 W/m² | - |
| 1777550535 | 5° C | 97% | 982.3 hPa | 0 mm | - | 16 W/m² | - |
| 1777550231 | 5° C | 97% | 982.2 hPa | 0 mm | - | 16 W/m² | - |
| 1777549928 | 5.56° C | 97% | 982.2 hPa | 0 mm | - | 9 W/m² | - |
| 1777549624 | 5.56° C | 97% | 982 hPa | 0 mm | - | 8 W/m² | - |
| 1777549319 | 5° C | 97% | 982.6 hPa | 0 mm | - | 10 W/m² | - |
| 1777549017 | 5° C | 97% | 982.2 hPa | 0 mm | - | 8 W/m² | - |
| 1777548713 | 5° C | 97% | 982.2 hPa | 0 mm | - | 12 W/m² | - |
| 1777548410 | 5° C | 97% | 982.3 hPa | 0 mm | - | 12 W/m² | - |
| 1777548107 | 5° C | 98% | 982.3 hPa | 0 mm | - | 13 W/m² | - |
| 1777547803 | 5° C | 98% | 982.2 hPa | 0 mm | - | 18 W/m² | - |
| 1777547499 | 5.56° C | 98% | 982.1 hPa | 0 mm | - | 12 W/m² | - |
| 1777547197 | 5.56° C | 98% | 982.2 hPa | 0 mm | - | 9 W/m² | - |
* Rain latest hour (hover to see other rain measurements)
** Current wind speed in m/s (hover to see current wind gust speed)